Location: Castelfranco dell�Emilia
(44.6167°N, 11.0500°E)
Time: 11:45:32
(UTC+00:00)

Daily predictions for brighter satellites

Satellite Brightness Start Highest point End
(mag) Time Altitude Azimuth Time Altitude Azimuth Time Altitude Azimuth
Cosmos 1408 Rocket 3.5 15:59:36 10° N 16:03:58 84° E 16:08:22 10° S
Cosmos 1340 Rocket 2.9 16:00:26 10° N 16:04:29 58° ENE 16:08:30 10° SSE
CZ-2C R/B 4.2 16:02:19 10° NE 16:05:07 15° E 16:07:56 10° ESE
CZ-2C R/B 2.9 16:00:19 10° SSE 16:05:12 71° ENE 16:09:58 10° N
CZ-4B R/B 4.3 16:02:14 10° ESE 16:06:04 20° ENE 16:09:51 10° NNE
CZ-4C R/B 3.8 16:02:43 10° N 16:06:30 60° WNW 16:10:06 10° SSW
Cosmos 2360 4.5 16:03:39 10° NNW 16:09:13 48° ENE 16:14:42 10° SE
Cosmos 1500 4.4 16:08:54 10° NNE 16:11:45 20° ENE 16:14:34 10° ESE
Lacrosse 5 rocket 3.0 16:09:34 10° NNW 16:12:02 16° NNE 16:14:34 10° NE
Cosmos 1743 Rocket 3.6 16:08:12 10° N 16:12:28 54° E 16:16:42 10° SSE
Meteor 1-20 Rocket 4.4 16:06:49 10° N 16:12:34 57° ENE 16:18:19 10° SSE
Okean O Rocket 3.2 16:12:01 10° E 16:14:27 15° ENE 16:16:53 10° NNE
USA 267 3.4 16:14:30 10° NE 16:21:04 84° NW 16:27:37 10° SW
H-2A R/B 2.7 16:18:33 10° SE 16:23:07 33° ENE 16:27:35 10° N
SJ 16-02 4.1 16:22:36 10° NW 16:26:02 23° W 16:29:26 10° SSW
Cosmos 1763 Rocket 3.5 16:21:44 10° SSW 16:26:48 90° E 16:31:57 10° NNE
CZ-4B R/B 3.1 16:23:23 10° S 16:27:27 73° WSW 16:31:20 10° NNW
USA 305 4.4 16:26:22 10° NW 16:29:45 23° N 16:32:46 12° NE
USA 276 3.1 16:26:57 10° WNW 16:29:58 47° SSW 16:32:59 10° SE
Cosmos 1656 4.5 16:26:33 10° NNW 16:31:58 56° WSW 16:37:26 10° S
Cosmos 1933 3.3 16:28:45 10° S 16:32:45 65° E 16:36:46 10° NNE
Cosmos 841 Rocket 3.8 16:28:22 10° S 16:33:15 45° ESE 16:38:10 10° NNE
PSLV R/B 4.0 16:30:11 10° SE 16:33:39 40° ENE 16:37:10 10° N
USA 229 DEB 4.0 16:29:43 10° NW 16:37:07 89° SW 16:44:58 10° SE
USA 229 4.0 16:29:49 10° NW 16:37:13 89° SW 16:45:03 10° SE
Cosmos 1937 Rocket 3.5 16:33:02 10° NNW 16:38:22 67° ENE 16:43:38 10° SSE
Cosmos 1500 Rocket 3.9 16:36:33 10° NNW 16:40:59 69° W 16:45:19 10° S
Cosmos 1666 3.7 16:38:14 10° NNE 16:41:17 24° ENE 16:44:20 10° SE
SL-24 R/B - RUBIN 2 3.8 16:39:27 10° NNW 16:43:51 46° NE 16:48:01 10° ESE
Cosmos 2322 Rocket 3.8 16:41:57 10° N 16:45:07 15° NE 16:45:58 14° NE
Cosmos 1697 Rocket 2.8 16:42:04 10° NNW 16:47:42 84° WSW 16:53:19 10° SSE
NOAA 6 4.1 16:43:17 10° SSE 16:48:26 82° WSW 16:53:35 10° NNW
Cosmos 372 Rocket 4.1 16:44:25 10° NNW 16:49:35 54° ENE 16:54:42 10° SE
Sich 1 2.9 16:46:27 10° N 16:50:45 69° E 16:55:02 10° SSE
Cosmos 1980 Rocket 2.2 16:46:27 10° NNW 16:52:04 57° ENE 16:57:35 10° SE
Cosmos 1805 Rocket 3.5 16:48:23 10° N 16:52:44 87° W 16:57:04 10° S
Cosmos 2369 3.6 16:48:15 10° NNW 16:54:00 74° ENE 16:59:42 10° SSE
USA 234 3.3 16:47:36 10° SE 16:54:11 89° NNE 17:00:45 10° NW
CZ-4C R/B 3.1 16:51:35 10° NNW 16:58:35 55° NE 17:06:45 10° ESE
Cosmos 1092 Rocket 4.2 16:52:25 10° N 16:58:48 80° W 17:05:07 10° S
Cosmos 1812 2.9 16:56:05 10° SSE 16:59:46 47° E 17:02:42 15° NNE
Cosmos 1428 Rocket 4.5 16:55:23 10° N 17:01:32 86° W 17:07:42 10° S
USA 306 4.4 16:58:42 10° NW 17:02:08 23° N 17:03:35 19° NE
SL-16 R/B 3.2 16:58:46 10° N 17:03:17 23° NE 17:04:16 22° ENE
ISS -3.6 17:00:27 10° NW 17:03:48 54° NNE 17:04:59 34° E
deb Chang Zheng 4 3.7 16:59:46 10° SE 17:03:54 47° ENE 17:08:03 10° N
SMAP 3.9 16:59:57 10° S 17:04:30 54° W 17:09:05 10° NNW
MOS 1-B Rocket 4.1 16:59:38 10° NNE 17:05:33 68° ESE 17:12:18 10° S
Cosmos 1939 Rocket 4.3 17:01:53 10° S 17:05:48 42° W 17:09:43 10° NNW
Cosmos 2082 Rocket 2.1 17:00:11 10° SSW 17:05:50 73° ESE 17:10:43 14° NNE
NOSS 2-2 (D) 4.3 17:00:52 10° NW 17:06:10 77° NE 17:13:35 10° SE
Cosmos 44 Rocket 3.9 17:08:51 10° NNW 17:13:21 34° NE 17:14:23 30° ENE
Meteor 2-16 Rocket 4.3 17:09:18 10° N 17:15:26 69° E 17:21:31 10° SSE
Cosmos 2142 Rocket 4.4 17:11:38 10° S 17:17:44 75° E 17:23:58 10° N
Cosmos 2278 3.6 17:12:22 10° NNW 17:18:05 66° ENE 17:23:43 10° SE
Cosmos 540 Rocket 4.1 17:15:53 10° SW 17:20:51 53° WNW 17:25:53 10° NNE
USA 307 4.3 17:17:30 10° NW 17:21:02 24° N 17:21:38 23° NNE
ARGOS 3.1 17:18:32 10° SSE 17:23:54 68° ENE 17:29:16 10° N
Cosmos 1900 4.5 17:19:32 10° S 17:24:13 49° ESE 17:25:34 38° ENE
Cosmos 2279 Rocket 3.9 17:19:08 10° S 17:25:20 81° E 17:31:34 10° N
Cosmos 1570 Rocket 3.9 17:20:14 10° S 17:25:26 70° ESE 17:28:35 24° NNE
COSMO-SKYMED 1 2.4 17:23:24 18° NNE 17:26:36 78° ESE 17:30:57 10° S
COSMOS 2406 4.0 17:21:09 10° SW 17:26:44 50° WNW 17:32:10 11° NNE
Cosmos 2298 Rocket 4.4 17:22:57 10° N 17:27:59 40° ENE 17:28:51 37° E
Cosmos 1833 Rocket 3.9 17:22:56 10° SW 17:28:09 38° NW 17:33:24 10° NNE
Cosmos 1782 4.0 17:25:09 10° SSW 17:28:57 42° WNW 17:32:46 10° N
Cosmos 1814 Rocket 3.9 17:25:03 10° SSW 17:30:18 88° ESE 17:33:44 22° NNE
Cosmos 2266 Rocket 4.2 17:24:37 10° N 17:30:48 49° ENE 17:36:59 10° SSE
ATLAS 5 CENTAUR R/B 2.7 17:27:26 10° NW 17:33:08 35° NNE 17:33:08 35° NNE
Cosmos 921 Rocket 3.5 17:29:29 10° S 17:32:43 39° SE 17:32:43 39° SE
Helios 1B 4.5 17:32:06 21° NNE 17:35:00 88° W 17:39:19 10° SSW
CZ-2C R/B 3.6 17:33:12 10° S 17:35:05 13° SSE 17:35:26 13° SSE
Cosmos 1633 Rocket 3.0 17:31:32 10° N 17:35:55 86° W 17:40:18 10° S
Cosmos 1818 3.6 17:32:06 10° NNW 17:37:30 54° NE 17:38:49 44° E
GEOS 3 Rocket 3.9 17:37:58 43° ENE 17:38:42 46° NE 17:43:39 10° NNW
Meteor 2-6 Rocket 4.1 17:34:31 10° S 17:40:18 80° E 17:45:14 14° NNE
SJ-11-01 4.3 17:37:09 10° S 17:41:54 82° WSW 17:46:41 10° NNW
USA 308 4.3 17:40:07 10° NW 17:43:13 25° N 17:43:13 25° N
COSMOS 2455 3.4 17:38:16 10° SW 17:44:09 55° NW 17:48:14 20° NNE
CZ-2C R/B 2.7 17:40:48 10° N 17:46:00 74° WNW 17:51:09 10° SSW
CZ-4B R/B 3.5 17:40:45 10° S 17:46:08 65° WSW 17:51:28 10° NNW
Cosmos 1151 Rocket 3.7 17:43:42 10° SSW 17:47:55 54° WNW 17:51:27 15° N
Spot 2 4.4 17:46:44 34° SE 17:48:49 61° ENE 17:53:53 10° N
Okean O Rocket 1.9 17:45:49 10° S 17:50:15 67° W 17:54:42 10° NNW
Lacrosse 5 rocket 2.4 17:48:06 10° NW 17:50:36 33° NNW 17:50:36 33° NNW
Meteor 2-15 4.3 17:51:34 10° S 17:57:41 89° E 18:03:28 12° N
Cosmos 2208 Rocket 4.1 17:54:06 10° SSW 17:59:29 76° WNW 18:01:39 38° N
Meteor 1-10 Rocket 4.1 17:56:22 10° S 18:02:11 88° E 18:04:52 33° N
H-2A R/B 3.7 17:57:49 10° SSW 18:02:29 33° W 18:07:04 10° NNW
USA 267 4.2 18:01:03 28° NNE 18:03:37 38° NNW 18:09:32 10° W
Meteor 1-11 Rocket 3.6 17:58:23 10° N 18:04:01 73° ENE 18:09:45 10° SSE
Cosmos 1470 Rocket 3.7 18:00:32 10° NNW 18:04:59 73° W 18:09:27 10° S
Cosmos 1328 Rocket 4.4 18:01:09 10° SSW 18:05:27 50° WNW 18:07:30 28° NNW
Cosmos 2150 Rocket 4.0 18:00:17 10° NNW 18:04:48 64° NNE 18:04:48 64° NNE
Cosmos 1655 Rocket 4.0 18:00:45 10° N 18:07:12 87° W 18:13:33 10° S
Landsat 5 4.1 18:08:41 48° NW 18:09:02 50° WNW 18:12:53 10° SSW
Cosmos 2360 Rocket 3.8 18:05:06 10° N 18:07:10 20° N 18:07:10 20° N
ATLAS CENTAUR R/B 3.9 18:14:24 10° W 18:20:11 26° NW 18:20:43 25° NNW
Cosmos 1125 Rocket 4.0 18:18:18 10° NNW 18:22:14 51° NNW 18:22:14 51° NNW
Cosmos 2322 Rocket 3.2 18:24:31 10° NNW 18:27:49 36° NNW 18:27:49 36° NNW
Cosmos 1980 Rocket 4.4 18:31:19 10° NW 18:35:36 22° W 18:39:50 10° SSW
ATLAS 2AS CENTAUR R/B 4.4 18:33:10 10° NNW 18:37:27 20° N 18:37:27 20° N
ISS -0.3 18:37:35 10° W 18:37:59 12° W 18:37:59 12° W
CZ-4C R/B 4.0 18:40:13 10° NW 18:47:17 45° WSW 18:55:15 10° S
SL-16 R/B 3.1 18:42:15 10° NNW 18:46:11 44° NW 18:46:11 44° NW
Cosmos 2082 Rocket 4.3 18:46:14 10° W 18:50:31 21° NW 18:52:35 18° NNW
